Saint Johnsbury, VT

6:49 PM EDT on September 26, 2016 (GMT -0400)
St. Johnsbury

Weather History for K1V4 - June, 2014

Change the Weather History Date:

Monday, June 16, 2014

  Actual Average Record
Temperature  
Mean Temperature 62 °F 66 °F  
Max Temperature 79 °F 77 °F 96 °F (1988)
Min Temperature 44 °F 55 °F 36 °F (1984)
Degree Days  
Heating Degree Days 4 2  
Month to date heating degree days 53  
Since 1 June heating degree days 53  
Since 1 July heating degree days 7757  
Cooling Degree Days 0 3  
Month to date cooling degree days 17 34  
Year to date cooling degree days 21 52  
Since 1 June cooling degree days 17 34  
Growing Degree Days 11 (Base 50)    
Moisture  
Dew Point 46 °F    
Average Humidity 60    
Maximum Humidity 93    
Minimum Humidity 26    
Precipitation  
Precipitation 0.00 in 0.14 in 1.90 in (1908)
Month to date precipitation 1.60 2.12  
Year to date precipitation 17.30 15.53  
Sea Level Pressure  
Sea Level Pressure 30.07 in    
Wind  
Wind Speed - (North)    
Max Wind Speed -    
Max Gust Speed -    
T = Trace of Precipitation, MM = Missing Value Source: NWS Daily Summary

Daily Weather History Graph

Daily Weather History Graph

Search for Another Location

Airport or City:

Trip Planner

Search our weather history database for the weather conditions in past years. The results will help you decide how hot, cold, wet, or windy it might be!

Date:

Astronomy

Jun. 16, 2014 Rise Set
Actual Time 5:03 AM EDT 8:34 PM EDT
Civil Twilight 4:26 AM EDT 9:11 PM EDT
Nautical Twilight 3:37 AM EDT 10:00 PM EDT
Astronomical Twilight 2:35 AM EDT 11:02 PM EDT
Moon 11:14 PM EDT (6/16) 9:11 AM EDT (6/16)
Length of Visible Light 16h 45m
Length of Day
15h 31m
Waning Gibbous, 83% of the Moon is Illuminated
Jun 16
Waning Gibbous
Jun 19
Last Quarter
Jun 27
New
Jul 5
First Quarter
Jul 12
Full

Hourly Weather History & Observations

Time (EDT) Temp. Dew Point Humidity Pressure Visibility Wind Dir Wind Speed Gust Speed Precip Events Conditions
12:54 AM 48.9 °F 46.0 °F 90% 30.09 in - North - - N/A   Unknown
1:54 AM 48.0 °F 46.0 °F 93% 30.11 in - North - - N/A   Unknown
2:54 AM 46.0 °F 44.1 °F 93% 30.12 in - North - - N/A   Unknown
3:54 AM 45.0 °F 43.0 °F 93% 30.13 in - North - - N/A   Unknown
4:54 AM 44.1 °F 43.0 °F 96% 30.14 in - North - - N/A   Unknown
5:54 AM 44.1 °F 43.0 °F 96% 30.15 in - North - - N/A   Unknown
6:54 AM 46.0 °F 43.0 °F 89% 30.16 in - North - - N/A   Unknown
7:54 AM 51.1 °F 45.0 °F 80% 30.16 in - North - - N/A   Unknown
8:54 AM 57.0 °F 46.0 °F 67% 30.15 in - North - - N/A   Unknown
9:54 AM 63.0 °F 46.0 °F 54% 30.14 in - North - - N/A   Unknown
10:54 AM 70.0 °F 42.1 °F 36% 30.12 in - North - - N/A   Unknown
11:54 AM 72.0 °F 43.0 °F 35% 30.09 in - North - - N/A   Unknown
12:54 PM 75.0 °F 44.1 °F 33% 30.08 in - North - - N/A   Unknown
1:54 PM 75.0 °F 43.0 °F 32% 30.05 in - North - - N/A   Unknown
2:54 PM 78.1 °F 44.1 °F 30% 30.03 in - North - - N/A   Unknown
3:54 PM 77.0 °F 39.9 °F 26% 30.03 in - North - - N/A   Unknown
4:54 PM 78.1 °F 41.0 °F 27% 30.01 in - North - - N/A   Unknown
5:54 PM 75.9 °F 44.1 °F 32% 30.00 in - North - - N/A   Unknown
6:54 PM 73.0 °F 46.9 °F 39% 29.99 in - North - - N/A   Unknown
7:54 PM 69.1 °F 54.0 °F 58% 30.00 in - North - - N/A   Unknown
8:54 PM 66.9 °F 54.0 °F 63% 30.00 in - North - - N/A   Unknown
9:54 PM 64.9 °F 54.0 °F 68% 30.01 in - North - - N/A   Unknown
10:54 PM 64.0 °F 54.0 °F 70% 30.01 in - North - - N/A   Unknown
11:54 PM 63.0 °F 54.0 °F 72% 30.01 in - North - - N/A   Unknown